GFSCGP_sfc_temp_000.txt.gz
Temp
55 50 44 46 47 49 47 43 41 43 50 49 45 45 50 50 51 51 49 51 53 54 52 52 53 54 55 55 57 58 57 57 55 53 53 52 52 52 52 52 54 53 54 54
52 46 50 54 52 50 47 43 42 47 50 46 46 47 50 52 50 49 49 50 52 52 53 55 54 52 55 57 57 57 57 57 55 53 52 52 51 51 51 52 52 53 53 54
47 50 55 53 49 48 45 43 42 44 47 45 44 44 47 52 53 54 53 51 52 53 55 53 54 53 54 55 55 56 56 56 55 54 52 52 51 51 52 53 52 54 53 55
50 54 53 50 49 47 41 49 47 45 41 38 43 36 45 47 49 51 52 52 50 51 52 54 54 54 53 54 54 55 55 55 56 54 52 50 49 49 52 52 53 56 53 51
47 49 49 49 48 49 47 49 45 44 40 38 42 37 43 47 47 47 48 51 49 53 54 54 54 53 52 52 51 51 53 54 54 53 51 49 50 49 50 51 49 51 50 48
48 53 51 49 52 50 52 46 45 42 39 32 38 37 38 42 46 48 49 50 53 52 54 55 53 53 51 51 51 51 53 53 53 52 50 48 46 47 48 51 47 47 45 44
47 48 52 53 48 51 48 39 29 29 27 28 40 36 40 48 50 50 50 50 52 52 50 50 50 50 50 50 50 52 50 51 51 49 48 47 48 47 48 49 48 45 42 39
37 36 48 54 47 43 43 40 28 25 22 27 38 34 42 51 51 53 53 49 48 48 49 49 49 49 49 50 50 49 49 49 49 48 48 47 48 47 48 47 44 41 39 39
35 39 50 50 49 48 43 36 42 31 22 23 32 39 47 48 50 52 47 47 47 48 49 49 52 52 51 51 51 48 48 48 48 46 45 45 45 47 47 45 40 39 39 41
42 36 45 49 50 51 47 48 35 31 20 22 30 32 35 43 45 46 44 45 47 48 50 52 52 52 52 50 48 48 47 47 47 45 45 47 45 46 45 40 39 39 39 40
44 41 41 45 43 40 42 37 38 38 32 23 21 30 43 43 44 44 44 46 46 47 49 49 49 49 49 48 48 47 46 46 44 43 43 42 44 43 41 38 38 38 40 41
44 37 31 38 45 46 43 40 39 27 29 28 25 31 46 47 46 46 45 47 47 48 49 49 48 48 47 47 48 46 45 44 44 43 42 42 40 38 37 38 39 40 41 42
44 35 28 36 41 43 40 41 40 35 31 31 23 31 47 47 45 46 45 46 47 47 47 48 49 48 47 47 46 45 45 43 43 42 40 38 37 36 36 37 38 39 40 42
48 38 35 28 35 38 35 39 40 37 31 31 32 38 45 47 44 44 45 45 47 46 47 46 46 47 46 46 44 44 42 43 41 40 39 36 35 36 35 37 38 39 40 42
44 35 36 38 40 39 39 38 38 34 36 33 38 35 41 43 43 44 46 45 46 47 47 45 44 48 47 46 44 42 42 41 40 39 39 38 40 40 38 38 39 40 40 41
41 32 32 32 36 36 33 37 37 37 36 36 37 36 45 43 42 43 44 45 44 44 44 44 45 44 44 44 42 42 41 40 40 39 38 40 42 42 41 40 40 39 39 39
38 30 29 26 32 31 28 34 35 36 39 38 34 41 40 40 42 43 45 43 42 41 43 43 45 46 46 43 40 39 40 39 38 40 40 39 40 40 40 40 38 36 34 33
32 28 28 24 32 23 39 43 44 39 41 43 40 40 41 42 43 44 44 42 40 41 43 45 46 46 42 41 40 37 36 37 37 36 36 38 39 37 36 35 34 33 33 32
37 32 29 29 29 32 40 42 37 36 36 42 38 41 42 44 41 41 41 41 42 43 44 45 44 42 40 38 36 36 36 35 36 36 36 36 35 34 33 32 31 31 30 30
36 30 27 28 26 24 36 40 43 41 30 40 43 45 46 42 35 41 43 43 44 45 46 44 42 40 39 39 37 39 35 35 34 35 35 34 33 31 29 29 29 29 28 29
27 29 31 31 27 29 39 42 45 31 33 43 43 44 41 38 40 40 42 43 46 46 45 43 41 38 38 39 38 36 35 33 35 35 34 33 31 30 29 28 27 26 26 25
31 25 22 26 25 23 41 42 36 42 43 45 45 42 41 41 40 40 42 43 44 43 41 42 38 37 38 39 37 35 32 36 35 33 32 31 30 30 30 27 26 26 24 20
31 36 33 35 31 41 46 46 48 48 43 41 39 41 40 38 38 40 40 42 43 42 41 39 36 36 37 37 38 34 36 35 34 32 30 30 30 29 29 26 25 24 22 18
39 42 35 37 41 43 47 49 47 44 42 41 41 40 40 39 39 39 40 41 42 41 37 35 35 35 34 36 36 34 34 33 32 31 30 29 28 27 26 27 27 25 18 17
40 42 38 37 44 44 44 41 42 42 42 42 42 42 41 40 38 39 39 38 38 36 36 35 34 34 34 34 33 32 32 32 31 31 31 29 27 25 25 26 25 24 22 19
41 39 34 37 44 42 44 44 45 42 42 43 42 40 42 40 38 38 38 38 36 36 35 34 34 33 34 34 32 31 31 30 29 30 28 22 21 21 23 24 23 29 27 29

GFSCGP_sfc_temp_003.txt.gz
Temp
60 59 53 54 56 56 55 53 51 55 57 56 53 56 61 61 62 61 62 63 65 67 65 65 65 67 68 68 70 72 71 70 69 69 68 70 68 68 69 69 67 65 67 66
59 53 58 57 57 56 55 52 52 55 56 56 55 58 59 61 59 59 61 62 63 65 65 63 65 66 67 70 70 69 67 66 66 68 67 66 65 67 65 65 65 66 65 65
53 57 58 58 54 53 52 52 51 51 54 55 54 56 57 60 62 63 63 63 64 65 65 65 66 66 65 65 64 65 65 66 65 64 67 67 66 66 66 67 67 67 65 65
56 58 56 55 53 53 49 54 52 50 50 49 52 47 54 55 59 60 62 64 65 65 66 66 66 66 65 63 63 65 65 65 64 63 63 61 61 60 62 62 64 63 63 62
53 55 54 53 53 55 52 53 51 51 50 49 50 50 53 55 55 57 60 61 63 63 63 62 61 61 61 62 62 63 63 63 62 62 61 61 59 60 61 61 60 60 61 60
54 59 57 56 57 56 55 52 50 49 48 42 45 46 47 52 53 56 60 61 59 60 61 61 60 62 61 61 61 61 62 63 62 61 60 58 57 57 58 59 58 59 59 57
51 53 57 57 54 57 54 48 42 40 39 39 45 45 48 54 56 57 57 56 56 58 58 59 59 60 60 60 60 61 61 61 60 59 58 57 58 58 57 57 57 55 55 55
43 44 52 56 53 50 49 47 39 32 34 37 44 41 48 55 58 57 55 55 56 57 58 58 58 59 59 59 59 59 59 59 60 59 57 57 58 57 56 56 55 53 52 52
42 44 54 54 55 54 50 44 47 37 27 34 41 47 53 55 55 56 54 56 56 58 59 59 59 59 59 58 58 56 57 58 59 57 55 55 55 54 54 53 52 50 50 51
47 42 50 53 56 55 53 52 43 41 31 30 40 40 46 49 52 52 53 54 56 58 60 61 61 60 58 58 56 56 57 57 56 56 55 54 54 53 51 50 48 48 49 50
50 46 46 50 48 47 49 46 44 44 39 33 29 40 51 52 53 53 55 55 55 57 59 60 60 58 57 56 58 57 56 55 55 54 52 52 51 49 48 48 48 48 49 50
49 43 39 45 50 52 50 47 45 38 34 37 34 38 53 54 56 55 55 55 56 57 58 59 59 58 57 57 57 56 55 53 52 52 51 50 49 48 47 47 47 48 48 48
50 41 36 41 47 50 47 47 44 41 38 36 31 39 53 53 55 56 55 55 56 56 57 57 57 55 55 55 53 53 52 51 51 51 50 48 47 47 46 46 47 47 47 48
50 42 40 37 41 45 40 43 44 43 36 38 39 43 50 53 52 54 52 53 54 55 55 55 54 54 54 53 51 49 48 50 49 48 48 47 45 45 44 45 46 46 47 47
48 40 41 42 44 43 42 42 42 40 42 36 42 43 48 51 51 52 53 54 53 54 53 51 50 52 52 50 49 49 49 48 47 47 46 45 45 45 42 44 45 47 47 46
45 39 38 35 39 39 35 41 41 41 42 41 42 41 52 52 51 51 51 51 51 50 47 48 47 47 49 49 48 47 47 45 45 44 43 44 44 46 46 45 44 44 43 43
42 37 34 32 35 35 33 40 41 43 45 45 39 48 48 49 49 51 52 50 45 43 45 46 48 48 49 49 46 46 45 45 44 43 43 44 44 44 43 43 43 42 41 41
34 34 33 32 34 28 45 48 48 45 46 47 46 47 48 50 51 51 48 44 42 42 43 47 50 50 50 49 47 45 45 44 43 43 43 44 43 42 42 41 40 40 40 39
41 35 32 30 32 36 43 47 44 42 44 47 46 48 49 52 50 47 44 44 42 41 45 49 51 50 49 47 46 44 43 43 43 43 43 42 41 40 40 38 38 38 38 37
38 35 35 31 28 27 40 47 49 48 37 48 49 48 48 48 36 44 41 43 44 47 49 50 51 49 47 47 45 43 43 42 41 41 41 41 40 39 38 38 37 37 37 36
31 31 31 32 30 35 44 46 48 34 36 44 48 48 45 41 39 40 42 43 47 48 49 50 49 46 46 46 45 43 40 39 41 42 41 41 40 38 38 37 38 37 36 33
36 32 29 29 28 26 46 46 39 44 44 46 46 44 41 40 40 41 43 44 46 46 48 49 46 45 46 46 43 42 41 43 43 42 40 40 40 38 38 37 37 36 34 31
34 39 36 36 37 46 48 48 49 46 44 42 41 41 40 39 40 44 44 45 45 46 47 47 45 44 44 44 44 42 43 42 42 40 39 39 39 38 38 36 35 34 34 31
41 44 38 38 45 47 49 48 46 44 44 43 44 42 42 42 43 43 44 44 44 45 45 45 43 43 42 44 43 42 42 41 40 39 39 39 37 37 37 36 35 33 31 29
44 43 39 38 46 46 46 46 48 43 44 43 44 45 44 44 43 43 43 42 43 43 43 43 41 41 42 43 41 41 40 39 39 38 38 37 35 34 34 34 33 32 31 29
43 42 38 38 46 44 44 45 45 43 43 44 44 43 45 44 43 43 42 42 41 40 41 41 41 41 41 41 39 39 38 37 36 35 35 34 33 33 32 33 32 31 29 28

GFSCGP_sfc_temp_009.txt.gz
Temp
80 76 71 70 72 72 71 69 68 72 73 70 70 73 75 78 80 79 81 81 82 84 88 86 84 84 85 84 85 86 83 80 83 83 80 80 79 80 80 81 78 77 76 75
75 67 71 73 72 70 69 67 66 70 71 70 71 72 74 76 76 79 79 80 80 80 81 81 81 82 82 82 81 81 80 79 81 81 79 77 76 78 78 79 77 77 74 73
70 69 72 70 70 67 67 65 64 64 70 73 70 68 70 74 77 77 79 80 81 79 78 78 78 78 78 77 78 79 78 77 76 78 79 78 78 78 77 75 75 75 73 73
69 71 68 68 66 68 63 67 65 64 64 61 72 61 67 71 71 73 75 76 77 78 79 79 78 77 75 75 76 77 76 76 76 74 74 71 71 69 71 72 73 72 72 72
64 66 66 64 64 67 63 67 65 65 64 65 66 63 63 71 67 69 72 73 74 76 76 75 75 76 76 74 73 75 75 75 74 74 72 70 69 70 72 71 68 68 70 69
68 73 70 68 69 68 70 66 66 66 65 53 62 61 62 66 66 68 70 71 73 74 75 75 75 76 75 74 73 74 74 74 73 72 71 69 65 64 66 66 65 66 66 66
67 66 70 70 67 70 70 64 53 49 50 49 62 59 60 66 69 70 68 70 72 73 73 73 74 75 73 72 72 73 74 74 74 72 70 69 68 67 66 65 64 62 62 62
60 54 65 69 64 61 63 62 50 41 46 52 62 54 61 69 70 70 71 71 72 71 72 72 73 73 74 73 73 72 72 72 74 72 70 70 68 66 65 63 61 59 59 60
58 57 67 66 69 67 62 57 62 50 46 45 58 62 67 68 68 69 68 70 70 71 72 72 73 74 73 72 72 71 70 71 72 70 69 66 65 63 61 59 59 59 59 60
61 54 63 65 68 68 64 66 53 55 38 39 54 56 57 60 64 66 68 69 70 72 73 73 73 73 73 73 72 71 70 70 70 68 66 65 63 61 60 59 58 58 58 58
64 59 58 63 61 60 62 60 57 58 52 42 41 51 64 63 64 64 66 69 70 71 71 72 72 70 71 72 71 70 68 66 65 66 63 61 61 60 59 59 58 56 53 54
62 59 51 58 63 65 63 59 58 47 45 49 45 47 68 66 67 67 68 68 69 69 70 70 70 68 67 67 67 67 64 63 63 63 62 61 61 60 59 58 54 53 54 53
63 56 49 54 58 62 58 60 59 55 50 44 39 47 67 67 66 69 67 67 68 65 65 66 67 67 64 65 64 63 63 62 62 62 61 61 60 58 56 54 53 53 53 53
57 58 52 47 53 59 54 57 60 56 45 46 48 53 62 64 64 65 65 66 64 64 63 62 62 62 62 61 59 62 62 62 61 61 60 58 56 55 54 53 53 53 54 52
61 50 55 56 59 59 57 56 57 55 55 46 50 54 59 62 62 63 64 64 63 61 60 59 59 60 59 59 62 62 62 61 61 59 59 56 56 55 54 53 53 52 52 52
60 49 49 47 57 57 52 56 58 58 57 56 56 54 65 64 65 63 59 59 60 58 56 56 58 58 59 61 61 61 60 61 60 58 56 56 55 52 52 51 51 51 50 50
54 50 46 40 49 46 38 51 56 57 59 56 48 56 63 61 58 55 55 59 55 53 51 55 57 59 60 61 61 59 62 61 59 58 57 56 52 51 50 51 51 50 49 49
49 48 42 36 38 32 53 63 61 57 58 61 61 61 60 56 58 58 57 55 52 52 53 56 58 59 61 63 63 61 62 61 59 57 55 54 52 50 50 51 50 49 49 47
58 49 38 34 39 47 53 55 54 51 51 61 57 57 57 58 58 54 55 54 52 54 57 59 61 61 61 61 61 60 59 58 57 55 54 53 51 48 49 49 48 48 47 46
52 50 45 37 32 32 50 59 61 59 44 57 55 53 48 53 43 51 54 55 55 58 61 60 61 61 61 61 61 58 57 57 53 54 54 52 51 49 48 48 47 48 47 46
38 38 37 37 34 43 57 58 60 40 43 55 53 50 50 47 50 52 54 56 59 60 60 61 61 59 59 59 58 56 56 55 55 55 54 52 51 50 49 48 48 47 46 43
43 38 34 38 33 32 59 57 44 54 57 54 50 49 49 52 53 54 55 56 58 59 60 60 58 57 57 58 56 54 54 57 54 54 52 49 49 49 49 47 47 46 44 41
46 51 47 47 47 60 59 56 59 58 53 51 47 48 50 52 53 54 55 56 57 58 59 59 57 55 56 56 55 52 52 52 49 46 46 45 47 48 49 47 45 43 43 38
57 63 50 48 55 58 57 59 57 55 51 49 48 53 55 53 54 54 55 56 56 57 56 57 54 53 52 54 54 52 49 48 48 44 44 46 45 45 46 47 45 43 39 35
56 58 53 51 57 58 60 54 54 52 52 51 56 55 54 54 54 55 54 55 55 55 55 54 53 52 52 52 51 51 48 46 43 42 44 44 45 45 44 44 43 41 39 34
58 55 48 45 56 52 52 54 54 53 52 55 54 54 56 56 54 55 54 54 54 52 53 53 53 52 51 49 48 46 46 44 41 40 41 42 41 42 41 42 41 32 31 30

GFSCGP_sfc_temp_012.txt.gz
Temp
80 72 66 69 71 72 71 69 68 71 73 70 70 72 75 78 80 78 79 80 81 79 81 80 79 79 80 80 77 75 69 73 74 74 70 68 67 69 69 71 70 70 67 66
74 66 72 75 74 71 70 67 67 71 73 70 71 70 74 76 76 78 77 77 77 77 77 77 76 73 73 74 73 75 74 72 71 72 69 68 68 68 69 69 67 68 66 65
66 69 74 72 71 68 69 65 63 63 70 72 69 67 68 73 75 76 77 78 77 75 73 74 73 72 71 71 71 73 72 70 68 68 71 68 68 66 66 66 65 66 65 66
69 73 70 70 67 67 62 68 66 65 63 57 70 55 65 69 69 71 72 73 73 74 76 75 73 70 69 68 70 71 72 71 70 68 67 65 64 62 64 64 64 64 64 62
65 68 68 66 65 68 63 68 66 65 62 62 65 59 63 69 64 66 69 71 71 72 73 72 71 71 71 69 68 70 71 71 70 69 66 63 62 61 61 60 60 60 60 60
69 75 71 68 70 70 70 67 67 66 62 50 61 60 54 61 63 66 69 70 71 72 72 72 73 73 71 70 69 69 70 71 70 68 65 62 60 60 59 58 57 56 57 56
67 67 71 72 66 71 69 63 49 45 47 45 62 58 57 66 69 69 68 69 70 70 70 71 72 72 71 69 69 69 69 69 69 68 65 63 61 59 57 56 54 53 53 53
59 52 66 71 65 62 64 61 47 39 39 47 62 53 56 67 70 70 70 70 71 70 70 70 71 70 70 70 69 69 68 67 68 66 64 62 60 58 57 55 53 52 52 52
58 56 68 68 69 68 61 55 63 51 44 42 54 59 64 67 66 68 68 69 70 71 72 71 71 71 70 69 68 66 66 67 65 62 60 59 58 56 54 53 53 52 52 54
62 54 64 67 69 69 64 66 52 52 37 37 50 53 50 59 62 65 67 67 69 70 71 70 70 68 68 67 66 64 63 62 62 61 58 58 57 56 55 53 52 51 50 51
64 61 58 64 61 59 61 59 58 57 50 40 38 47 63 62 64 63 65 68 67 67 68 68 68 68 67 66 65 62 61 61 60 60 58 57 56 56 55 53 50 50 49 50
62 59 49 58 65 67 64 59 59 44 44 46 43 45 66 66 66 65 65 67 67 66 66 66 65 64 64 63 63 62 61 60 59 59 57 56 56 55 53 51 50 49 48 49
61 56 46 52 58 63 59 61 60 56 47 41 37 44 67 66 62 65 64 65 64 64 65 64 63 62 62 62 61 59 59 59 60 59 58 56 54 52 50 50 49 49 48 48
57 59 52 45 52 59 54 58 60 57 42 43 45 50 59 61 60 62 63 64 64 63 62 61 61 60 60 59 58 59 60 59 59 59 57 54 52 51 50 49 49 48 48 47
61 51 54 55 57 58 56 56 57 54 54 44 49 53 59 60 61 59 60 61 61 60 59 58 56 57 58 58 59 60 59 59 58 56 56 53 53 52 50 48 48 48 47 47
61 48 48 46 57 55 50 54 55 56 57 56 55 53 64 63 61 58 57 58 57 56 55 55 57 57 58 59 59 59 59 58 57 54 53 55 53 51 49 47 47 46 45 45
54 48 44 39 47 45 38 49 55 57 59 56 47 56 60 57 56 57 57 56 53 53 54 54 56 57 58 58 58 57 59 58 55 54 55 52 48 48 48 48 47 46 44 43
48 46 41 36 38 33 54 61 61 56 59 61 60 59 57 55 57 58 56 53 52 53 53 55 57 58 58 59 59 58 59 57 57 56 52 49 48 48 48 47 46 44 43 41
59 47 36 34 37 45 51 56 53 50 49 59 56 55 55 56 56 53 55 55 53 54 56 58 59 59 58 58 57 56 55 55 55 55 50 47 48 48 47 45 43 42 41 40
54 50 43 35 32 31 49 59 61 59 41 56 54 52 50 53 41 47 54 55 56 58 59 59 59 59 57 56 56 54 53 52 52 49 49 47 46 47 44 44 43 42 41 41
37 39 36 36 34 40 56 59 60 40 41 54 53 51 50 46 47 52 55 56 58 59 59 59 58 56 55 56 55 52 51 50 51 50 48 44 41 43 43 44 43 41 39 36
38 36 34 37 33 32 60 57 44 52 56 55 53 50 46 46 51 54 55 55 57 57 57 58 55 54 54 55 53 51 50 51 49 47 47 46 45 45 46 42 41 40 37 34
46 49 45 45 43 58 61 56 57 54 51 49 50 49 50 49 53 54 53 55 55 56 56 56 54 52 53 54 54 50 49 49 47 45 44 43 44 44 44 41 38 36 35 30
58 62 48 48 55 58 59 59 57 56 53 53 53 53 53 52 53 53 54 54 54 54 53 54 52 51 51 53 52 49 48 47 44 42 42 42 41 41 41 42 39 35 31 28
54 58 53 51 57 59 57 56 54 53 53 53 55 56 54 54 53 53 53 53 53 53 53 52 51 50 49 50 48 48 46 44 42 41 40 38 37 37 38 39 35 32 30 29
56 53 47 44 56 53 53 53 53 52 51 53 54 53 55 55 53 53 51 52 52 50 51 50 50 48 48 48 46 46 45 43 38 35 35 35 35 35 35 35 35 33 31 32

GFSCGP_sfc_temp_015.txt.gz
Temp
67 58 52 56 60 63 62 59 56 56 65 60 59 58 62 64 65 63 63 66 66 66 68 68 69 67 66 65 67 64 62 62 64 62 61 60 60 62 62 62 62 62 62 63
61 54 63 68 66 63 63 58 54 59 66 60 56 55 61 65 63 63 64 63 64 64 66 67 65 63 61 62 62 63 64 62 63 61 60 61 61 61 61 62 61 61 60 60
56 61 70 67 62 60 59 55 54 55 61 59 56 53 58 63 66 68 65 65 65 63 63 64 63 59 60 60 61 63 63 63 62 62 61 61 60 59 59 58 61 60 58 58
61 67 66 63 61 60 54 61 60 59 53 45 56 41 53 59 60 63 62 60 60 62 64 64 62 59 59 59 61 62 63 63 65 62 58 57 54 54 55 55 54 56 55 55
58 60 60 59 60 63 57 61 58 57 51 48 52 45 49 59 55 57 58 61 60 60 61 60 60 61 60 61 60 60 62 63 63 61 59 56 55 55 55 54 52 52 52 54
61 66 62 60 65 64 65 59 57 55 51 36 51 48 46 51 56 57 60 61 61 60 61 62 62 62 60 60 60 61 62 62 62 63 61 57 54 54 51 50 49 49 50 50
60 60 62 66 58 62 59 51 35 34 32 32 53 49 46 55 61 61 59 57 59 60 59 59 60 59 59 58 59 59 60 62 61 59 57 55 54 52 49 48 47 47 47 47
48 44 58 64 58 53 54 52 33 31 29 34 52 44 46 59 61 62 62 60 61 60 61 60 62 61 60 64 59 59 61 60 58 56 55 54 53 52 49 49 48 47 45 45
48 49 61 63 63 60 55 45 54 40 35 30 43 49 56 60 61 62 62 61 61 60 60 62 61 60 59 58 56 56 57 57 56 55 53 53 52 51 50 49 46 45 45 49
55 46 59 62 62 62 57 59 41 38 30 30 40 43 42 52 53 58 59 58 59 58 58 58 58 57 57 57 55 54 55 55 55 54 53 54 53 52 50 46 45 45 45 45
54 50 50 57 53 51 52 49 50 49 38 29 26 36 52 53 55 54 56 57 55 55 56 56 56 56 56 56 55 53 53 54 53 52 52 50 50 49 47 46 45 45 44 45
54 48 36 50 58 60 56 52 51 32 35 32 30 35 56 54 56 56 57 57 56 56 55 54 55 54 54 53 53 53 52 52 53 53 52 51 50 48 46 45 45 44 45 45
52 46 33 42 50 56 52 55 54 46 36 34 24 32 58 61 58 60 57 55 55 55 54 53 53 52 52 52 52 51 51 51 53 53 51 50 49 49 45 46 45 45 44 43
52 51 42 33 43 49 45 51 52 45 30 33 34 43 52 52 51 51 52 52 52 52 52 51 50 50 51 51 51 51 52 52 52 51 49 47 46 48 47 45 44 46 45 43
52 41 45 48 50 51 49 48 49 46 45 35 40 45 51 48 49 51 53 54 52 51 51 50 49 48 49 50 51 51 52 51 51 50 49 47 47 47 44 45 45 44 44 43
52 36 37 37 48 47 43 46 47 48 49 48 48 46 53 52 52 51 51 50 49 50 50 50 50 51 51 51 51 51 50 50 50 48 50 47 45 45 44 43 43 44 41 42
45 37 32 30 40 37 30 41 48 50 51 48 37 46 49 48 49 46 46 48 48 47 48 48 50 51 51 49 50 47 48 49 48 49 49 45 45 43 43 45 44 43 39 39
40 36 31 25 29 22 45 54 52 49 50 51 50 48 48 47 46 47 48 46 46 47 48 49 49 49 50 48 48 47 48 48 46 45 45 44 43 42 43 42 43 40 39 39
49 35 27 27 26 36 46 50 46 43 42 49 46 47 48 50 48 44 49 47 45 47 48 48 49 49 47 47 47 46 46 45 45 44 43 42 41 41 41 41 41 41 39 34
46 39 31 25 20 18 39 51 55 51 31 49 48 44 44 45 31 38 46 48 48 50 50 49 49 48 46 46 47 45 44 43 42 42 43 41 39 38 38 36 38 38 36 34
29 30 25 31 19 31 46 54 54 33 34 46 46 44 43 39 39 44 47 48 50 50 50 49 48 45 45 46 46 44 43 41 43 43 43 42 40 39 39 39 39 36 32 30
31 27 29 33 28 23 52 51 39 43 46 47 45 44 43 43 44 46 48 49 50 47 48 48 45 44 46 47 45 43 41 43 43 41 40 39 39 40 43 37 35 32 29 28
35 38 33 36 33 46 52 49 50 49 46 44 45 47 44 44 46 47 47 47 47 45 45 46 44 44 45 45 44 41 41 42 40 38 37 37 38 39 38 33 30 29 28 23
47 51 36 39 47 50 52 50 51 49 46 47 49 50 50 48 46 46 46 45 45 44 43 44 44 43 42 44 44 41 41 40 38 36 35 35 34 34 34 33 31 28 22 21
44 49 46 40 48 49 49 48 48 48 50 51 51 52 49 47 46 45 44 44 43 42 43 43 42 41 41 41 41 41 40 39 36 35 34 31 30 31 32 31 28 27 26 24
48 45 37 35 47 46 44 47 50 50 49 51 52 50 50 48 45 45 43 43 42 41 42 42 42 42 40 39 39 41 41 37 33 31 30 28 27 26 29 28 27 32 31 32

GFSCGP_sfc_temp_018.txt.gz
Temp
63 56 51 54 57 60 60 53 52 52 60 59 55 53 56 58 58 57 58 58 59 59 62 62 62 63 62 61 60 59 59 60 61 59 57 57 56 58 57 58 59 58 58 58
57 51 60 64 62 60 58 54 51 57 63 57 54 52 54 58 57 59 58 58 58 59 60 60 59 57 57 58 58 59 60 59 59 58 55 56 56 56 56 59 59 57 56 56
53 59 65 62 58 57 53 52 51 53 55 55 56 51 53 58 59 60 59 59 60 58 57 59 59 55 55 56 58 60 60 61 59 59 59 58 58 56 54 54 53 54 56 55
58 63 62 58 57 55 49 57 57 54 49 44 51 38 48 52 54 57 57 56 57 59 59 59 58 56 55 55 57 59 61 61 61 59 57 56 53 53 52 50 50 50 52 52
53 56 56 55 56 58 54 58 54 53 47 45 48 42 46 53 51 52 53 55 55 56 58 56 59 58 58 57 57 57 59 60 59 57 56 54 52 51 50 49 49 50 50 50
58 61 58 56 61 60 60 55 53 51 46 35 47 44 42 46 51 54 55 55 55 55 55 57 58 58 57 56 57 56 58 58 59 56 55 53 51 50 48 47 47 50 49 46
55 56 60 62 56 59 56 47 34 33 31 32 50 44 43 53 58 57 54 54 56 56 55 55 57 56 55 54 55 57 57 55 55 53 52 51 49 48 49 51 50 48 46 44
45 41 54 61 55 50 52 47 32 32 28 33 48 39 44 54 60 60 58 57 57 56 55 54 55 54 54 55 54 54 55 54 54 53 52 51 50 51 52 51 49 46 43 44
45 46 56 58 58 56 51 43 51 38 33 29 39 45 52 57 56 59 60 60 55 53 53 54 55 53 53 53 52 54 54 53 53 52 51 50 50 52 51 48 44 43 43 46
52 44 54 58 60 59 54 55 41 36 29 29 37 39 41 48 52 55 53 51 52 53 53 53 53 53 53 51 50 51 52 53 52 51 50 51 50 49 46 44 43 43 43 44
51 48 47 54 50 47 49 46 46 44 35 28 25 34 48 50 52 50 49 51 50 51 51 52 53 53 51 51 51 50 49 50 50 50 50 48 48 47 44 44 43 43 43 44
51 44 35 46 55 56 52 48 46 31 35 30 28 33 52 51 52 52 52 53 51 52 52 52 52 50 49 49 50 50 49 49 50 50 49 48 47 46 45 44 44 43 45 46
50 43 32 40 47 52 49 51 49 42 34 34 24 31 53 53 50 53 50 50 50 49 48 49 49 49 50 50 50 49 49 49 49 48 48 48 47 45 44 44 43 44 43 43
51 45 40 34 40 45 42 46 47 42 29 32 32 40 46 46 46 47 48 47 46 47 48 47 47 47 48 48 48 48 48 47 48 48 46 45 44 43 42 42 43 43 41 41
49 39 42 44 46 46 44 44 44 43 41 34 39 40 44 45 45 47 48 48 47 47 48 48 47 46 46 47 48 47 46 47 47 46 44 43 43 43 43 42 40 41 42 41
48 35 37 37 44 43 40 43 43 44 45 44 44 39 47 47 47 45 46 46 46 47 48 47 47 48 48 47 46 46 46 46 46 44 43 44 43 43 42 41 40 39 40 41
42 35 31 30 36 36 30 41 44 46 46 45 37 42 46 44 44 43 43 46 46 44 45 46 46 47 46 45 46 44 45 46 44 43 43 42 42 41 40 40 40 40 38 38
37 33 28 25 27 21 42 50 50 46 45 45 44 44 45 44 43 44 45 44 44 45 46 46 46 45 45 44 45 44 45 44 42 41 41 41 40 39 39 39 38 38 37 38
45 32 26 23 25 34 43 47 45 43 41 46 44 44 45 44 43 40 46 46 44 45 46 46 45 45 44 44 44 43 43 41 41 40 40 40 39 38 37 35 34 35 35 33
42 35 29 27 20 19 37 48 52 49 32 46 45 43 43 43 31 37 45 46 46 46 47 45 45 44 43 44 43 41 40 39 39 40 40 40 39 37 36 35 34 33 33 33
28 26 24 17 17 29 42 50 51 32 35 45 44 43 42 38 39 43 45 46 46 46 47 45 43 42 43 43 42 40 39 38 40 40 40 39 38 37 37 37 36 32 31 30
31 27 25 26 17 24 47 48 39 42 43 45 43 43 42 43 44 47 48 46 46 45 44 44 42 42 42 42 41 38 37 40 40 38 38 36 36 37 37 32 30 30 28 27
36 37 32 35 34 45 48 48 48 47 44 43 43 44 44 43 44 46 45 44 44 42 42 43 40 40 41 41 40 38 39 39 38 36 34 34 34 34 33 30 28 27 26 22
44 47 35 38 46 46 49 47 48 46 44 45 46 45 48 46 44 43 42 42 41 41 40 40 40 39 39 40 41 39 39 38 36 34 32 32 31 31 31 30 30 26 21 19
41 46 43 37 45 44 46 45 45 45 46 48 51 50 49 45 43 43 41 41 40 39 39 39 38 37 38 38 37 38 37 37 34 33 32 30 29 29 29 29 28 26 26 24
45 44 37 37 46 46 44 45 47 46 47 51 50 48 45 44 42 42 39 39 38 37 38 37 37 37 37 37 36 36 36 35 34 31 30 27 26 24 27 29 28 32 31 31

GFSCGP_sfc_temp_024.txt.gz
Temp
58 53 48 49 53 55 53 48 45 45 52 48 44 43 46 48 49 48 48 48 49 50 53 55 55 57 58 59 61 61 60 59 58 55 55 53 52 52 54 54 56 56 55 52
55 48 55 57 56 54 52 48 46 48 53 49 45 44 47 49 47 47 48 48 49 50 52 55 54 55 56 57 58 57 58 58 57 55 53 53 52 56 55 53 50 51 50 50
51 53 58 56 52 52 49 48 45 47 49 49 46 43 45 50 50 52 51 51 52 52 51 53 53 52 53 53 55 57 57 57 56 55 53 52 52 51 49 48 47 48 49 49
52 56 55 53 52 51 45 51 51 50 44 39 45 35 42 44 46 48 49 48 50 51 52 53 53 53 52 51 53 54 55 55 55 55 54 53 50 48 46 46 46 46 48 49
49 51 52 51 50 53 49 53 50 48 43 41 42 37 38 46 43 46 47 49 48 49 51 52 53 53 51 51 50 52 54 54 53 53 52 49 46 45 45 45 48 50 50 50
51 55 53 51 55 55 54 51 48 44 41 33 39 39 36 40 45 47 48 50 50 48 50 54 54 54 51 52 54 52 54 52 52 51 50 49 47 46 45 46 49 48 45 44
51 51 54 55 51 53 50 44 32 31 30 30 42 38 41 47 49 50 50 49 49 50 49 50 52 53 53 52 50 50 51 50 51 50 50 49 48 47 47 47 45 44 43 41
41 39 50 56 50 47 45 44 32 32 27 31 41 35 41 48 52 53 51 50 50 49 50 50 53 52 49 49 49 50 51 50 50 50 49 48 48 46 46 46 44 43 41 41
41 41 51 53 53 52 45 39 45 34 31 28 34 40 46 48 48 49 49 50 48 48 49 49 48 48 48 48 48 49 49 50 50 49 47 46 45 45 44 44 42 41 41 43
48 41 48 52 53 53 48 50 38 33 28 28 32 34 35 42 45 48 47 46 46 46 46 47 47 47 48 48 47 48 48 48 48 47 45 46 44 45 44 42 41 40 40 41
47 44 43 48 46 43 45 42 39 39 32 26 22 31 43 47 49 48 46 45 46 46 45 46 47 48 48 48 49 48 46 47 46 45 44 44 43 43 42 41 40 40 41 43
46 41 34 41 48 49 46 43 41 30 33 28 27 31 45 46 48 47 45 47 45 45 45 46 47 48 49 48 47 47 45 47 44 44 44 43 42 42 41 40 40 40 39 39
48 40 32 38 44 47 43 43 41 37 33 32 23 31 46 45 45 46 45 44 44 44 44 44 45 46 48 46 46 46 46 44 45 44 43 42 41 40 39 39 40 40 38 37
49 41 38 34 37 40 39 42 41 39 28 31 30 36 41 42 43 42 42 42 42 43 44 43 43 44 44 45 46 45 44 44 44 43 41 40 40 39 39 39 39 38 37 37
46 38 38 37 39 40 40 41 40 39 38 34 36 35 42 44 43 43 43 42 42 43 43 43 44 44 45 46 44 45 44 43 43 42 41 40 39 39 39 38 38 37 37 38
43 34 36 35 38 38 37 40 40 39 39 38 37 38 44 42 42 41 42 42 42 43 44 45 46 46 46 44 42 43 43 42 41 40 39 40 39 39 38 37 36 36 36 39
38 34 32 29 32 33 30 37 40 39 40 40 35 41 41 40 41 41 40 42 42 43 44 45 46 46 43 42 42 41 41 41 40 39 40 39 39 37 36 36 35 35 36 37
35 32 26 24 26 21 39 43 43 42 42 43 41 41 42 41 40 42 43 42 42 43 45 46 45 44 41 41 41 40 40 39 38 38 39 38 37 35 35 34 34 33 32 32
39 30 25 22 24 34 41 43 41 40 40 44 42 40 40 40 41 40 44 43 43 45 45 43 42 41 41 41 40 39 39 38 38 37 37 37 36 34 34 33 33 32 32 31
37 34 29 21 20 19 37 42 46 46 33 44 44 40 39 40 32 42 43 44 43 44 44 43 42 41 40 39 39 38 38 36 36 36 37 36 35 34 32 32 31 31 30 31
27 25 23 15 17 29 41 45 46 33 35 41 43 41 38 38 41 43 43 43 44 44 44 43 41 40 39 39 38 37 36 35 37 37 36 35 34 32 32 31 30 29 28 28
31 28 23 24 17 26 44 45 38 42 40 43 42 42 42 41 42 42 43 42 44 43 42 41 39 38 38 38 36 35 34 36 36 35 34 33 32 33 33 30 29 29 27 26
32 35 31 33 33 43 44 43 45 44 44 43 43 43 45 41 41 43 43 43 42 41 39 39 38 38 37 37 36 34 34 35 34 33 32 32 35 32 32 29 27 26 26 21
38 41 33 37 43 42 43 46 46 45 45 44 44 44 45 43 43 41 41 39 39 37 38 38 37 35 35 35 35 33 34 33 32 32 32 32 34 32 31 30 30 26 20 21
39 41 38 35 41 41 45 45 46 45 44 44 45 45 44 43 42 41 39 39 39 38 37 37 35 34 34 34 33 33 32 32 31 32 32 31 32 29 30 29 27 27 27 26
41 41 34 34 45 44 45 46 44 45 44 45 45 43 42 44 41 41 39 38 37 36 35 35 35 34 33 32 31 32 32 31 30 30 30 32 32 29 29 28 27 32 30 31

GFSCGP_sfc_temp_027.txt.gz
Temp
63 62 58 60 61 60 59 57 56 57 57 55 50 51 52 55 58 57 57 58 58 58 58 60 60 63 65 65 65 65 60 58 57 60 59 59 60 59 58 61 63 62 62 61
61 56 61 61 61 58 57 56 54 55 56 56 52 50 53 55 53 56 57 57 58 57 58 58 61 64 65 65 65 65 65 63 62 66 66 66 64 64 63 61 60 61 60 61
56 59 62 60 58 57 55 54 54 54 56 56 55 52 51 54 55 55 56 57 58 58 57 59 61 63 64 64 65 66 67 66 67 65 65 64 63 61 61 61 60 60 60 60
58 61 59 58 56 57 52 58 56 54 55 51 54 50 50 51 51 54 56 57 57 58 60 61 61 61 62 61 63 65 65 65 64 64 65 63 65 63 60 60 61 61 57 58
55 57 57 55 56 58 54 57 56 54 52 52 51 52 49 51 49 53 55 56 57 59 61 60 61 62 61 61 62 63 64 64 63 63 62 62 59 59 59 59 58 58 59 58
57 62 60 59 58 58 57 56 54 51 51 44 48 49 48 48 53 54 56 57 57 58 59 60 61 61 62 62 62 61 62 61 61 62 61 60 59 58 60 60 60 60 59 58
55 56 60 60 57 59 57 53 43 41 41 40 47 45 52 55 56 59 57 57 58 59 59 60 61 61 61 59 60 61 62 60 61 61 61 61 60 59 59 59 58 57 57 56
48 46 56 59 58 55 52 53 43 36 36 41 47 43 53 55 59 61 61 60 58 58 59 59 60 61 60 59 60 60 61 60 61 61 60 59 57 58 58 57 57 56 55 55
47 48 58 58 59 59 52 48 52 41 36 38 45 49 55 53 54 56 57 57 57 59 59 59 59 58 58 58 58 59 60 60 59 59 57 57 57 56 56 55 54 53 52 53
52 46 54 57 59 57 56 54 46 44 34 34 41 42 48 48 51 54 55 56 58 58 57 57 57 56 57 58 56 57 58 58 58 58 56 56 55 55 54 54 53 52 53 53
54 51 49 54 52 52 52 48 45 46 41 37 34 44 52 54 54 54 56 57 57 55 55 55 56 56 57 57 57 57 56 57 56 55 54 54 54 54 54 53 53 52 52 54
53 47 43 49 54 56 54 50 48 41 38 36 37 43 53 53 56 57 57 54 54 55 54 55 56 56 56 56 56 53 55 55 54 54 54 54 54 54 53 52 52 52 50 50
52 46 40 45 51 54 52 49 46 43 41 38 36 44 53 52 52 55 55 53 52 52 53 54 54 55 55 54 54 54 54 53 54 56 55 54 52 51 50 50 50 50 49 48
52 45 45 42 46 48 46 46 47 47 39 39 41 47 50 52 50 50 51 51 52 51 51 53 53 54 53 53 54 52 52 53 54 54 53 51 50 49 49 49 49 48 47 46
51 45 45 43 44 46 47 46 45 45 45 43 45 44 51 53 54 53 50 49 49 49 50 51 52 52 52 52 52 51 52 53 52 52 50 49 49 49 48 48 47 46 46 46
47 42 43 41 42 42 43 45 46 45 45 45 44 45 54 53 52 49 48 48 48 49 50 51 51 51 52 52 51 50 51 51 50 50 48 48 48 47 47 46 45 45 44 45
44 40 39 35 37 39 36 43 45 45 46 49 43 52 49 48 48 51 49 49 49 50 50 51 50 52 53 51 50 50 51 50 48 47 47 47 46 46 45 45 45 44 43 43
40 38 34 34 32 32 47 49 49 47 48 49 48 50 50 51 50 50 51 50 49 50 50 51 51 51 51 51 50 49 50 48 46 46 46 45 45 44 44 43 43 43 43 42
44 37 30 33 33 39 48 46 45 44 49 51 50 50 47 47 49 50 50 52 52 52 52 52 52 50 50 50 49 48 47 46 45 45 45 45 44 43 43 42 42 42 42 42
41 39 38 30 32 31 44 49 51 52 41 51 50 47 45 48 44 52 50 50 50 52 51 50 49 48 49 48 47 46 46 45 45 45 45 45 43 42 41 41 41 41 41 40
34 32 33 26 33 37 46 50 52 41 43 48 49 49 45 47 52 51 50 49 51 50 48 47 48 48 47 46 46 45 44 43 44 44 44 44 43 41 41 41 41 40 40 38
37 33 32 27 30 32 48 50 44 50 50 50 49 49 47 51 47 47 47 47 47 46 45 46 45 45 45 45 44 44 43 44 43 43 42 42 41 41 41 40 40 39 38 35
38 41 39 40 41 49 49 50 52 50 50 52 49 50 50 46 47 47 46 46 46 46 45 46 46 44 43 43 43 41 42 41 41 40 40 41 40 40 41 39 39 38 37 34
42 44 41 41 49 46 48 51 51 52 52 52 52 52 49 48 47 44 43 43 40 40 44 43 43 42 41 41 41 40 40 39 38 38 40 41 39 39 40 39 39 37 35 34
43 43 41 40 45 47 50 49 53 52 50 51 51 50 49 48 46 44 40 40 41 43 43 43 42 40 39 40 39 40 39 38 37 37 38 38 38 38 37 38 38 36 37 36
44 44 40 41 50 50 50 53 52 50 50 50 48 45 46 46 43 42 39 39 43 41 40 40 39 39 39 39 38 38 38 36 36 35 37 37 37 36 36 36 36 34 32 31

GFSCGP_sfc_temp_030.txt.gz
Temp
71 67 64 69 70 70 69 67 66 66 66 68 67 67 65 68 71 70 71 72 72 73 72 70 70 75 76 75 74 74 69 64 67 64 63 66 65 66 64 70 70 69 69 69
69 65 67 68 69 69 69 65 62 63 65 68 66 64 65 67 69 71 72 72 73 71 71 68 69 73 73 73 73 73 72 73 74 75 74 75 73 73 73 71 69 69 69 69
65 66 68 69 68 66 65 64 62 63 64 67 67 62 63 63 65 66 69 72 72 71 69 69 69 70 71 72 72 73 76 76 76 76 74 73 72 71 70 70 70 69 68 69
67 68 67 68 65 67 61 65 66 64 64 60 67 58 62 63 62 64 66 68 69 69 71 71 71 71 73 74 75 77 76 76 74 73 74 72 75 73 72 72 71 70 67 67
62 65 66 65 63 66 62 66 66 65 65 62 62 60 62 62 60 63 66 67 68 70 71 71 72 73 73 72 73 75 74 75 73 73 73 72 70 69 69 69 67 68 68 66
65 70 69 66 66 67 67 65 65 65 63 53 60 59 64 63 65 64 66 66 68 69 71 72 73 73 73 73 72 72 73 72 72 71 70 69 67 67 69 69 67 68 68 67
64 64 68 68 65 66 66 63 53 48 49 48 57 56 63 66 66 68 65 67 68 69 70 70 70 71 71 69 69 70 71 69 70 69 69 68 67 66 66 65 66 64 65 65
58 52 64 66 65 64 63 62 53 41 44 51 56 52 64 66 69 71 71 70 69 69 70 71 71 71 70 69 70 71 71 69 70 69 67 67 66 70 68 65 64 63 63 62
57 55 65 64 67 66 60 58 61 51 44 46 57 60 65 64 65 68 69 69 68 70 70 70 70 70 69 69 68 68 69 69 67 65 66 66 67 64 63 62 62 62 61 61
62 53 62 63 67 66 64 65 53 55 40 40 53 54 60 58 61 65 66 66 69 71 71 70 69 67 69 69 66 67 68 66 64 64 64 66 63 64 64 62 60 59 60 60
66 61 56 61 60 60 59 58 57 58 52 46 44 56 64 63 65 64 67 68 69 70 70 69 68 67 67 67 67 66 65 64 65 65 63 62 62 63 63 61 59 59 58 58
62 61 53 57 62 64 63 61 60 51 47 48 47 54 65 64 66 68 68 69 71 71 69 68 66 66 65 65 66 63 64 65 63 63 62 61 62 62 60 59 58 58 56 56
63 58 49 51 58 61 59 61 60 56 54 48 43 55 64 65 65 68 68 70 68 67 66 66 65 64 64 64 64 64 63 62 63 62 62 62 61 59 58 57 57 56 55 54
58 58 56 51 55 60 54 57 59 59 48 51 52 59 62 64 65 67 67 69 66 64 64 64 64 64 64 63 63 62 60 62 62 62 62 60 59 58 57 56 55 54 54 53
61 55 55 54 54 55 56 57 57 56 58 50 58 57 65 66 67 68 68 67 65 62 62 63 63 64 63 62 62 62 59 61 61 60 60 58 58 57 56 54 54 53 52 52
58 53 52 49 51 52 51 57 58 59 59 57 60 58 69 69 67 65 63 63 62 61 62 62 63 63 62 62 62 56 60 60 59 58 57 57 56 55 54 53 51 51 51 51
55 51 49 46 47 48 40 52 57 58 60 59 53 62 66 62 62 64 64 63 62 62 62 62 62 62 62 61 57 59 59 58 57 57 56 55 53 52 52 52 51 51 50 50
51 51 45 42 39 35 57 59 59 59 61 64 62 65 64 64 64 64 66 66 63 63 62 62 63 61 61 60 59 59 59 57 56 55 54 53 52 51 51 51 50 50 50 49
56 51 39 38 44 51 58 55 54 52 57 65 63 65 63 60 60 63 64 65 65 64 64 64 64 61 59 58 59 58 57 56 54 53 52 52 52 50 50 49 48 48 48 48
52 52 49 39 37 35 53 56 59 59 50 62 61 61 59 59 53 64 65 63 62 64 65 62 59 57 58 58 57 55 55 54 52 52 52 52 51 50 49 48 47 48 48 47
42 41 39 40 38 48 58 58 59 46 51 62 60 62 59 57 64 62 63 62 64 63 60 59 58 57 55 54 54 53 53 51 53 51 51 51 51 49 49 48 48 48 47 45
46 42 38 39 36 37 58 57 51 58 62 61 62 62 60 63 59 58 59 60 59 58 56 56 52 51 52 54 53 52 51 51 50 49 49 50 49 48 48 47 47 47 46 43
46 53 51 51 53 58 60 62 64 62 60 60 60 64 60 59 58 57 57 56 56 55 53 53 51 47 51 52 52 48 50 48 47 47 47 47 47 46 47 46 46 44 44 42
53 54 51 49 59 59 61 63 64 63 62 64 64 63 62 60 60 56 55 54 53 52 45 45 46 49 49 49 48 48 47 47 46 45 45 46 45 45 46 46 42 42 41 40
55 53 52 51 58 60 62 61 61 62 63 62 63 60 59 59 57 56 53 51 47 44 44 47 48 48 47 47 47 47 46 46 44 43 43 43 43 44 44 45 42 41 43 41
55 53 49 49 56 55 58 61 60 58 59 59 58 56 55 57 54 53 49 44 43 42 43 46 46 45 45 43 44 46 46 44 42 40 41 42 42 42 42 42 41 36 34 34

GFSCGP_sfc_temp_033.txt.gz
Temp
76 69 65 70 71 71 69 67 68 72 75 73 72 72 74 76 77 77 78 77 77 77 81 79 81 83 84 81 78 77 72 72 72 73 72 72 70 72 70 72 71 72 73 72
70 65 72 74 74 71 70 68 66 70 73 72 72 71 74 76 77 79 78 77 78 79 77 76 77 79 80 79 75 73 72 73 75 78 77 76 75 74 75 75 72 73 72 72
63 64 73 70 71 69 69 66 66 66 70 73 72 68 69 73 77 78 80 81 80 79 76 75 75 77 76 74 73 71 73 74 77 79 78 77 76 74 73 72 72 72 71 72
65 72 71 68 68 71 63 71 70 68 65 59 72 55 67 71 70 71 74 77 79 79 79 77 76 73 72 71 73 77 78 80 79 78 77 74 75 71 74 74 74 72 70 70
64 69 68 66 67 71 65 71 70 70 67 63 66 62 54 72 68 70 74 75 77 77 77 76 75 75 78 77 78 80 79 79 77 77 77 75 74 74 73 73 69 70 70 69
69 76 74 72 72 72 73 69 68 69 66 54 64 62 63 68 71 72 74 74 75 76 76 77 78 78 78 77 77 77 77 77 76 75 74 73 70 70 70 70 69 69 70 70
68 69 73 74 68 72 71 66 52 49 51 50 64 61 65 74 74 77 72 73 74 75 75 76 75 76 75 74 74 75 76 74 74 73 72 71 70 69 67 68 67 66 66 66
59 55 68 73 70 67 67 66 53 43 46 53 64 56 66 75 75 77 76 75 74 74 75 75 75 76 74 73 74 74 74 73 73 72 71 71 69 68 68 68 66 65 64 64
60 58 71 70 72 72 66 60 68 57 52 49 59 67 71 71 71 74 74 73 72 73 74 75 75 76 74 74 73 73 73 73 72 70 69 68 67 65 65 65 65 64 63 63
67 57 67 68 72 71 67 71 57 58 43 43 57 59 63 65 67 71 72 72 73 74 75 75 75 74 74 74 72 72 73 72 70 69 68 67 64 65 66 64 62 62 61 61
72 65 61 65 63 65 64 62 63 63 58 47 46 58 70 68 70 70 72 74 73 74 75 75 75 75 74 73 71 70 71 70 69 68 66 63 63 65 64 63 62 61 60 60
70 66 56 61 68 70 69 66 65 52 52 54 51 55 72 71 73 73 73 75 75 76 76 76 75 74 72 71 70 70 69 69 69 67 63 61 65 65 63 62 61 60 59 59
69 62 52 56 63 67 63 66 66 64 59 52 46 55 73 72 71 74 74 75 75 75 76 76 74 72 70 70 69 69 68 68 67 64 63 65 64 63 62 61 60 59 58 57
61 64 59 52 59 65 59 63 66 62 51 53 56 62 68 70 70 73 73 75 76 75 75 75 73 71 70 69 69 68 67 67 65 64 63 64 63 62 61 61 59 58 57 55
66 57 62 64 62 63 63 63 64 61 62 55 59 63 69 73 73 74 75 74 74 73 72 72 71 70 70 68 68 68 66 64 62 61 63 62 62 61 60 58 57 56 55 55
66 57 58 54 61 60 58 63 64 65 64 64 65 64 75 74 77 73 73 72 72 72 70 71 70 70 69 68 67 66 63 61 60 61 61 61 60 59 58 57 55 55 54 54
61 57 52 48 54 55 43 55 61 64 67 65 57 66 74 70 69 70 71 70 70 71 71 70 70 70 69 68 66 62 61 61 61 60 60 59 58 57 56 56 55 54 53 53
58 56 52 46 41 34 61 66 66 62 66 70 69 70 72 71 71 72 73 72 70 71 71 71 70 69 69 69 65 63 63 60 59 59 59 58 56 54 55 54 53 52 52 51
64 56 45 40 46 55 60 64 60 58 60 68 66 68 71 70 67 68 72 72 71 72 72 72 71 70 69 66 63 61 58 59 59 57 57 57 55 54 53 52 52 52 50 50
59 59 52 45 37 34 55 62 65 65 51 66 66 66 66 67 56 65 70 70 69 71 72 70 70 69 66 63 62 58 56 56 56 56 55 55 55 53 52 52 51 51 50 49
45 45 42 44 41 50 64 64 64 48 52 65 66 66 66 63 65 66 69 69 71 71 70 70 67 64 62 62 57 53 53 53 55 56 54 54 54 52 52 52 50 49 49 48
48 45 40 45 36 37 65 63 53 60 66 67 66 66 64 66 67 65 66 67 67 67 65 64 61 60 57 53 52 51 54 56 53 51 51 51 52 52 52 48 48 49 48 45
51 57 54 55 54 64 67 65 68 68 64 65 65 67 66 65 66 67 64 64 64 64 61 61 56 49 49 50 52 52 52 48 49 49 49 50 51 50 49 48 47 47 46 44
60 61 56 55 63 65 66 68 68 68 66 67 68 67 66 64 65 65 62 61 60 60 56 50 48 45 45 51 51 50 50 50 47 46 48 49 47 46 48 48 47 46 42 41
60 60 58 57 62 64 66 65 64 63 65 65 66 65 61 61 63 62 59 57 54 49 44 45 43 45 47 50 48 50 48 47 47 47 46 45 44 45 45 47 47 44 44 41
62 58 53 52 59 57 60 62 61 61 59 59 60 59 59 61 59 56 50 47 40 38 42 43 43 44 47 47 45 46 49 48 44 42 42 42 42 43 44 43 43 40 36 36

GFSCGP_sfc_temp_039.txt.gz
Temp
60 55 49 54 59 62 61 56 56 60 66 60 60 59 60 64 63 62 62 63 64 67 69 73 71 71 69 67 68 65 62 60 60 59 58 58 56 56 57 58 60 60 60 61
53 49 60 65 66 63 59 56 56 63 67 62 60 58 62 64 64 65 64 64 65 65 67 68 68 67 69 67 65 64 63 62 62 62 61 61 59 58 58 59 59 60 60 60
50 58 67 65 62 61 59 57 59 57 61 60 57 53 56 64 67 68 69 69 70 67 66 67 69 64 67 67 64 63 62 62 64 64 64 60 59 57 56 56 56 59 60 60
57 63 62 60 60 64 55 64 62 61 56 47 57 41 53 59 63 67 67 67 67 68 68 69 67 64 65 62 64 66 64 65 65 65 65 61 57 57 56 56 56 57 59 60
55 58 57 55 60 65 58 64 61 59 55 51 51 45 49 61 58 64 62 64 65 68 67 67 66 66 64 64 64 65 65 67 65 65 67 61 57 57 56 56 56 56 57 58
58 64 60 62 66 65 66 61 60 55 50 40 54 50 45 55 62 65 68 64 66 64 69 68 67 65 63 65 65 64 62 63 65 67 63 60 59 57 57 57 56 57 54 52
59 61 64 65 59 64 60 53 39 35 34 35 55 50 51 60 64 65 65 66 64 64 66 65 64 64 63 60 60 61 62 63 65 65 60 58 57 56 55 53 51 51 53 51
49 45 59 66 59 56 57 53 39 31 31 35 52 46 53 65 66 65 66 64 63 63 64 64 65 64 63 63 62 63 65 66 61 60 59 58 57 54 53 52 51 51 52 53
47 48 60 64 63 63 57 50 57 43 39 33 43 53 59 64 62 61 57 61 61 61 62 62 62 63 63 65 61 63 63 62 60 59 56 55 54 53 52 52 53 53 52 55
52 44 56 60 64 65 59 61 46 44 34 33 44 45 46 56 60 59 60 60 61 62 62 62 62 61 61 61 61 60 60 60 59 57 55 55 53 53 53 54 54 54 53 53
55 51 49 56 54 53 55 51 53 52 44 34 29 40 55 58 60 60 59 62 61 61 61 61 61 62 62 61 60 60 60 58 56 57 55 52 52 53 55 55 54 53 52 53
57 50 41 49 60 65 61 55 53 36 41 40 33 39 59 60 61 62 62 64 62 64 63 62 62 62 62 61 60 59 59 58 60 58 55 52 53 56 56 55 54 53 52 51
58 50 38 45 53 59 55 58 58 54 44 40 30 38 61 63 60 63 61 63 63 62 62 63 62 63 62 61 61 59 58 57 60 58 56 55 55 55 54 54 54 52 51 48
58 54 47 38 47 54 49 54 57 51 34 38 40 46 56 58 60 60 62 61 60 63 65 64 64 64 66 64 63 60 58 59 57 55 53 53 53 54 54 53 53 49 49 48
56 47 50 53 56 58 57 55 55 52 50 41 46 50 57 56 58 59 61 61 63 64 62 62 62 59 59 58 58 59 59 57 58 56 54 52 53 53 53 53 51 49 49 49
57 45 48 44 55 54 49 54 54 54 55 52 52 51 59 60 60 60 62 63 62 62 62 63 60 59 60 58 58 58 59 57 55 54 53 53 52 53 50 49 49 48 48 47
51 46 39 35 46 46 35 47 51 53 55 52 45 51 56 56 58 57 58 60 61 61 62 62 63 60 60 59 58 54 55 55 54 53 53 53 51 50 50 50 49 48 46 46
48 46 37 32 33 26 47 58 59 55 55 55 55 55 56 56 57 58 58 57 57 59 60 60 59 60 57 55 54 54 54 53 52 51 51 50 49 49 47 47 46 46 45 44
54 42 34 30 30 42 50 55 53 50 48 55 52 54 56 57 55 53 59 59 58 59 59 58 57 55 54 54 53 52 51 52 51 49 49 48 48 46 46 45 44 44 46 43
52 47 35 31 28 24 43 55 60 57 37 54 54 52 52 53 39 46 56 58 57 54 52 52 51 49 50 48 47 45 44 44 44 45 46 46 46 46 44 43 44 44 43 43
33 34 30 26 25 35 54 58 58 37 39 53 54 53 52 48 49 54 57 57 55 50 48 47 46 44 45 46 46 44 44 43 46 47 47 47 46 44 44 44 43 42 40 39
37 32 27 32 28 29 58 55 45 48 52 54 54 53 52 53 54 55 55 50 48 45 44 44 42 42 44 46 44 43 43 46 47 46 45 44 44 44 45 42 40 40 39 35
37 42 37 40 37 50 55 53 54 54 51 52 52 53 53 52 53 51 46 45 43 42 41 42 42 43 45 46 46 44 44 46 45 42 40 40 42 43 43 40 38 36 35 32
50 56 44 45 51 53 53 55 56 55 52 51 51 51 51 46 46 44 42 40 40 41 42 44 43 42 42 44 45 44 44 43 40 39 39 39 38 39 39 38 37 34 30 28
48 51 49 47 49 51 51 52 53 53 51 49 49 48 46 43 41 40 39 40 41 41 42 42 41 40 41 43 43 43 41 41 40 39 38 37 36 35 35 36 35 33 32 31
51 49 39 36 48 47 46 49 50 48 47 47 44 42 42 41 39 39 38 40 39 39 40 39 39 40 41 41 40 41 42 40 37 35 34 31 31 31 32 33 34 36 35 36